Location: Newark
(41.7622°N, 48.6978°E)
Time: 06:04:54
(UTC+00:00)

Hubble Space Telescope - Visible Passes

Search period start: 27 January 2020 00:00
Search period end: 06 February 2020 00:00
Orbit: 536 x 540 km, 28.5° (Epoch: 25 January)

Date Brightness Start Highest point End Pass type
(mag) Time Alt. Az. Time Alt. Az. Time Alt. Az.
03 Feb 3.4 01:44:10 11° S 01:44:25 11° S 01:45:34 10° SSE visible
03 Feb 3.3 03:23:03 10° SSW 03:24:47 12° S 03:26:31 10° SSE visible
04 Feb 3.4 01:34:12 12° SSE 01:34:12 12° SSE 01:35:11 10° SSE visible
04 Feb 3.3 03:12:30 10° SSW 03:14:02 12° S 03:15:32 10° SSE visible
05 Feb 3.5 01:24:13 11° SSE 01:24:13 11° SSE 01:24:38 10° SSE visible
05 Feb 3.3 03:02:07 10° SSW 03:03:15 11° S 03:04:22 10° S visible
